• In Czech Republic
  • List of Countries
  • For 7 days
  • Water Temperature
  • Satellite Maps
  • Weather Map
  • Weather Widgets
  • user-avatar
    Login

    Hourly Weather Armawir

    Today, 24 September, Sunday

    Time Temperature Precipitation Wind Pressure Humidity
    00:00 +21°C° 0 mm 2 mps 688 mmHg 51%
    01:00 +21°C° 0 mm 2 mps 689 mmHg 54%
    02:00 +20°C° 0 mm 2 mps 689 mmHg 57%
    03:00 +20°C° 0 mm 3 mps 689 mmHg 60%
    04:00 +19°C° 0 mm 2 mps 689 mmHg 63%
    05:00 +19°C° 0 mm 2 mps 689 mmHg 67%
    06:00 +18°C° 0 mm 2 mps 689 mmHg 70%
    07:00 +20°C° 0 mm 2 mps 689 mmHg 63%
    08:00 +23°C° 0 mm 2 mps 690 mmHg 56%
    09:00 +25°C° 0 mm 2 mps 690 mmHg 50%
    10:00 +26°C° 0.1 mm 2 mps 690 mmHg 44%
    11:00 +28°C° 0.1 mm 2 mps 690 mmHg 38%
    12:00 +29°C° 0.1 mm 1 mps 690 mmHg 32%
    13:00 +29°C° 0.1 mm 2 mps 690 mmHg 30%
    14:00 +30°C° 0.1 mm 2 mps 689 mmHg 29%
    15:00 +30°C° 0.1 mm 2 mps 689 mmHg 28%
    16:00 +28°C° 0.3 mm 2 mps 689 mmHg 32%
    17:00 +27°C° 0.3 mm 2 mps 689 mmHg 37%
    18:00 +25°C° 0.3 mm 2 mps 689 mmHg 42%
    19:00 +24°C° 0.2 mm 2 mps 689 mmHg 46%
    20:00 +23°C° 0.2 mm 2 mps 689 mmHg 51%
    21:00 +21°C° 0.2 mm 2 mps 690 mmHg 56%
    22:00 +21°C° 0.1 mm 2 mps 690 mmHg 58%
    23:00 +20°C° 0.1 mm 2 mps 690 mmHg 60%

    Tomorrow, 25 September, Monday

    Time Temperature Precipitation Wind Pressure Humidity
    00:00 +19°C° 0.1 mm 2 mps 690 mmHg 62%
    01:00 +19°C° 0.1 mm 2 mps 690 mmHg 64%
    02:00 +19°C° 0.1 mm 2 mps 690 mmHg 66%
    03:00 +18°C° 0.1 mm 2 mps 690 mmHg 68%
    04:00 +18°C° 0.1 mm 2 mps 690 mmHg 69%
    05:00 +18°C° 0.1 mm 1 mps 689 mmHg 71%
    06:00 +18°C° 0.1 mm 1 mps 689 mmHg 73%
    07:00 +20°C° 0 mm 1 mps 690 mmHg 64%
    08:00 +22°C° 0 mm 1 mps 690 mmHg 56%
    09:00 +24°C° 0 mm 1 mps 690 mmHg 48%
    10:00 +25°C° 0.1 mm 1 mps 690 mmHg 43%
    11:00 +27°C° 0.1 mm 1 mps 690 mmHg 37%
    12:00 +28°C° 0.1 mm 2 mps 690 mmHg 32%
    13:00 +28°C° 0.1 mm 2 mps 689 mmHg 30%
    14:00 +29°C° 0.1 mm 2 mps 689 mmHg 29%
    15:00 +29°C° 0.1 mm 2 mps 689 mmHg 27%
    16:00 +27°C° 0 mm 2 mps 689 mmHg 30%
    17:00 +25°C° 0 mm 2 mps 688 mmHg 34%
    18:00 +24°C° 0 mm 1 mps 688 mmHg 37%
    19:00 +23°C° 0.1 mm 1 mps 688 mmHg 42%
    20:00 +21°C° 0.1 mm 2 mps 689 mmHg 46%
    21:00 +20°C° 0.1 mm 2 mps 689 mmHg 51%
    22:00 +20°C° 0 mm 2 mps 689 mmHg 54%
    23:00 +19°C° 0 mm 2 mps 689 mmHg 57%

    Day after tomorrow, 26 September, Tuesday

    Time Temperature Precipitation Wind Pressure Humidity
    00:00 +20°C° 0 mm 1 mps 689 mmHg 61%
    01:00 +19°C° 0 mm 1 mps 689 mmHg 63%
    02:00 +19°C° 0 mm 1 mps 689 mmHg 65%
    03:00 +18°C° 0 mm 1 mps 688 mmHg 67%
    04:00 +18°C° 0 mm 1 mps 688 mmHg 69%
    05:00 +18°C° 0 mm 1 mps 688 mmHg 70%
    06:00 +16°C° 0 mm 1 mps 688 mmHg 72%
    07:00 +20°C° 0 mm 1 mps 688 mmHg 61%
    08:00 +22°C° 0 mm 1 mps 689 mmHg 50%
    09:00 +24°C° 0 mm 1 mps 689 mmHg 40%
    10:00 +25°C° 0 mm 2 mps 689 mmHg 35%
    11:00 +27°C° 0 mm 2 mps 689 mmHg 30%
    12:00 +28°C° 0 mm 2 mps 688 mmHg 26%
    13:00 +29°C° 0 mm 2 mps 688 mmHg 25%
    14:00 +29°C° 0 mm 2 mps 688 mmHg 24%
    15:00 +29°C° 0 mm 2 mps 687 mmHg 23%
    16:00 +28°C° 0 mm 2 mps 687 mmHg 27%
    17:00 +26°C° 0 mm 2 mps 687 mmHg 31%
    18:00 +24°C° 0 mm 2 mps 687 mmHg 35%
    19:00 +24°C° 0 mm 2 mps 687 mmHg 39%
    20:00 +23°C° 0 mm 2 mps 687 mmHg 43%
    21:00 +21°C° 0 mm 2 mps 688 mmHg 47%
    22:00 +21°C° 0 mm 2 mps 688 mmHg 51%
    23:00 +20°C° 0 mm 2 mps 687 mmHg 54%

    27 September, Wednesday

    Time Temperature Precipitation Wind Pressure Humidity
    00:00 +20°C° 0 mm 2 mps 687 mmHg 58%
    01:00 +19°C° 0.1 mm 2 mps 687 mmHg 61%
    02:00 +19°C° 0.1 mm 2 mps 687 mmHg 63%
    03:00 +18°C° 0.1 mm 2 mps 687 mmHg 66%
    04:00 +18°C° 0.2 mm 2 mps 687 mmHg 67%
    05:00 +18°C° 0.2 mm 1 mps 687 mmHg 69%
    06:00 +18°C° 0.2 mm 1 mps 687 mmHg 71%
    07:00 +20°C° 0.2 mm 1 mps 687 mmHg 61%
    08:00 +22°C° 0.2 mm 1 mps 687 mmHg 51%
    09:00 +25°C° 0.2 mm 1 mps 688 mmHg 41%
    10:00 +26°C° 0.1 mm 2 mps 687 mmHg 37%
    11:00 +27°C° 0.1 mm 2 mps 687 mmHg 33%
    12:00 +29°C° 0.1 mm 3 mps 687 mmHg 29%
    13:00 +29°C° 0.1 mm 3 mps 687 mmHg 28%
    14:00 +29°C° 0.1 mm 3 mps 687 mmHg 27%
    15:00 +29°C° 0.1 mm 3 mps 686 mmHg 26%
    16:00 +28°C° 0.2 mm 3 mps 686 mmHg 30%
    17:00 +26°C° 0.2 mm 3 mps 687 mmHg 35%
    18:00 +25°C° 0.2 mm 3 mps 687 mmHg 39%
    19:00 +22°C° 0.1 mm 3 mps 687 mmHg 45%
    20:00 +21°C° 0.1 mm 3 mps 687 mmHg 51%
    21:00 +20°C° 0.1 mm 2 mps 688 mmHg 56%
    22:00 +20°C° 0.1 mm 2 mps 688 mmHg 59%
    23:00 +19°C° 0.1 mm 2 mps 687 mmHg 62%

    28 September, Thursday

    Time Temperature Precipitation Wind Pressure Humidity
    00:00 +19°C° 0.1 mm 2 mps 687 mmHg 64%
    01:00 +18°C° 0.1 mm 2 mps 687 mmHg 66%
    02:00 +18°C° 0.1 mm 2 mps 687 mmHg 67%
    03:00 +17°C° 0.1 mm 2 mps 687 mmHg 68%
    04:00 +17°C° 0.1 mm 2 mps 687 mmHg 69%
    05:00 +18°C° 0.1 mm 1 mps 687 mmHg 70%
    06:00 +16°C° 0.1 mm 1 mps 687 mmHg 72%
    07:00 +19°C° 0.1 mm 1 mps 688 mmHg 64%
    08:00 +21°C° 0.1 mm 1 mps 688 mmHg 56%
    09:00 +23°C° 0.1 mm 1 mps 689 mmHg 48%
    10:00 +24°C° 0.1 mm 2 mps 689 mmHg 44%
    11:00 +25°C° 0.1 mm 2 mps 689 mmHg 40%
    12:00 +26°C° 0.1 mm 2 mps 689 mmHg 35%
    13:00 +27°C° 0.2 mm 2 mps 688 mmHg 34%
    14:00 +27°C° 0.2 mm 2 mps 688 mmHg 33%
    15:00 +28°C° 0.2 mm 2 mps 688 mmHg 32%
    16:00 +26°C° 0.2 mm 3 mps 688 mmHg 36%
    17:00 +25°C° 0.2 mm 3 mps 688 mmHg 41%
    18:00 +22°C° 0.2 mm 3 mps 688 mmHg 45%
    19:00 +21°C° 0.2 mm 3 mps 688 mmHg 50%
    20:00 +21°C° 0.2 mm 3 mps 688 mmHg 55%
    21:00 +20°C° 0.2 mm 3 mps 689 mmHg 61%
    22:00 +19°C° 0.2 mm 2 mps 689 mmHg 63%
    23:00 +19°C° 0.2 mm 2 mps 689 mmHg 65%

    29 September, Friday

    Time Temperature Precipitation Wind Pressure Humidity
    00:00 +18°C° 0.2 mm 2 mps 689 mmHg 67%
    01:00 +18°C° 0.2 mm 2 mps 689 mmHg 69%
    02:00 +17°C° 0.2 mm 2 mps 689 mmHg 71%
    03:00 +17°C° 0.2 mm 2 mps 689 mmHg 72%
    04:00 +16°C° 0.1 mm 1 mps 689 mmHg 74%
    05:00 +16°C° 0.1 mm 1 mps 689 mmHg 75%
    06:00 +16°C° 0.1 mm 1 mps 689 mmHg 76%
    07:00 +18°C° 0.1 mm 1 mps 689 mmHg 68%
    08:00 +19°C° 0.1 mm 2 mps 689 mmHg 60%
    09:00 +21°C° 0.1 mm 2 mps 689 mmHg 52%
    10:00 +23°C° 0.1 mm 2 mps 689 mmHg 48%
    11:00 +24°C° 0.1 mm 2 mps 689 mmHg 43%
    12:00 +25°C° 0.1 mm 3 mps 689 mmHg 39%
    13:00 +26°C° 0.3 mm 3 mps 688 mmHg 38%
    14:00 +26°C° 0.3 mm 3 mps 688 mmHg 37%
    15:00 +27°C° 0.3 mm 3 mps 688 mmHg 36%
    16:00 +25°C° 0.4 mm 2 mps 687 mmHg 41%
    17:00 +23°C° 0.4 mm 2 mps 687 mmHg 46%
    18:00 +21°C° 0.4 mm 2 mps 687 mmHg 51%
    19:00 +20°C° 0.3 mm 2 mps 688 mmHg 54%
    20:00 +19°C° 0.3 mm 2 mps 688 mmHg 58%
    21:00 +19°C° 0.3 mm 3 mps 688 mmHg 61%
    22:00 +18°C° 0.1 mm 2 mps 688 mmHg 63%
    23:00 +17°C° 0.1 mm 2 mps 688 mmHg 65%
    Show more